Location: Boquerón
(10.0687°N, 67.9212°W)
Time: 09:54:28
(UTC+00:00)

Tsikada Rocket - Pass Details

Date: 29 May 2024
Orbit: 959 x 1007 km, 82.9° (Epoch: 16 June)

Event Time Altitude Azimuth Distance (km) Brightness Sun altitude
Rises 23:38:45 0° 171° (S) 3,632 6.7 -12.0°
Reaches altitude 10° 23:41:19 10° 165° (SSE) 2,688 5.9 -12.6°
Maximum altitude 23:47:12 49° 92° (E) 1,226 4.2 -13.9°
Drops below altitude 10° 23:53:08 10° 19° (NNE) 2,709 6.4 -15.2°
Sets 23:55:43 0° 14° (NNE) 3,663 7.2 -15.8°
